Weather History for KRBO - March, 2014

Change the Weather History Date:

Sunday, March 30, 2014

  Actual Average (KCRP) Record (KCRP)
Temperature  
Mean Temperature 67 °F 69 °F  
Max Temperature 80 °F 79 °F 102 °F (1989)
Min Temperature 55 °F 59 °F 36 °F (1987)
Degree Days  
Heating Degree Days 0 1  
Month to date heating degree days 80  
Since 1 July heating degree days 880  
Cooling Degree Days 2 5  
Month to date cooling degree days 110  
Year to date cooling degree days 186  
Growing Degree Days 17 (Base 50)    
Moisture  
Dew Point 57 °F    
Average Humidity 71    
Maximum Humidity 97    
Minimum Humidity 34    
Precipitation  
Precipitation 0.00 in 0.04 in 0.53 in (1965)
Month to date precipitation 1.84  
Year to date precipitation 5.31  
Snow  
Snow 0.00 in - - ()
Month to date snowfall  
Since 1 July snowfall  
Snow Depth -    
Sea Level Pressure  
Sea Level Pressure 30.14 in    
Wind  
Wind Speed 8 mph (SE)    
Max Wind Speed 24 mph    
Max Gust Speed 32 mph    
Visibility 8 miles    
Events Fog    
T = Trace of Precipitation, MM = Missing Value Source: NWS Daily Summary

Daily Weather History Graph

Daily Weather History Graph

Search for Another Location

Airport or City:

Trip Planner

Search our weather history database for the weather conditions in past years. The results will help you decide how hot, cold, wet, or windy it might be!

Date:

Astronomy

Mar. 30, 2014 Rise Set
Actual Time 7:23 AM CDT 7:47 PM CDT
Civil Twilight 6:59 AM CDT 8:10 PM CDT
Nautical Twilight 6:32 AM CDT 8:38 PM CDT
Astronomical Twilight 6:04 AM CDT 9:06 PM CDT
Moon 7:09 AM CDT (3/30) 7:58 PM CDT (3/30)
Length of Visible Light 13h 11m
Length of Day
12h 24m
Waning Crescent, 0% of the Moon is Illuminated
Mar 30
Waning Crescent
Mar 30
New
Apr 7
First Quarter
Apr 15
Full
Apr 22
Last Quarter

Hourly Weather History & Observations

Time (CDT) Temp. Dew Point Humidity Pressure Visibility Wind Dir Wind Speed Gust Speed Precip Events Conditions
12:15 AM 63.0 °F 55.9 °F 78% 30.20 in 10.0 mi Calm Calm - N/A   Clear
12:35 AM 63.5 °F 56.1 °F 77% 30.20 in 10.0 mi Calm Calm - N/A   Clear
12:55 AM 63.3 °F 56.3 °F 78% 30.20 in 10.0 mi Calm Calm - N/A   Clear
1:15 AM 62.6 °F 56.3 °F 80% 30.20 in 10.0 mi East 3.5 mph - N/A   Clear
1:35 AM 62.6 °F 56.7 °F 81% 30.19 in 10.0 mi ESE 4.6 mph - N/A   Clear
1:55 AM 62.6 °F 57.2 °F 82% 30.20 in 10.0 mi SSE 3.5 mph - N/A   Clear
2:15 AM 61.9 °F 56.7 °F 83% 30.19 in 10.0 mi SE 4.6 mph - N/A   Clear
2:35 AM 61.7 °F 56.8 °F 84% 30.19 in 10.0 mi SE 4.6 mph - N/A   Clear
2:55 AM 61.2 °F 57.0 °F 86% 30.18 in 10.0 mi SE 4.6 mph - N/A   Clear
3:15 AM 61.0 °F 57.4 °F 88% 30.17 in 10.0 mi ESE 3.5 mph - N/A   Clear
3:35 AM 60.8 °F 57.4 °F 88% 30.17 in 10.0 mi ESE 3.5 mph - N/A   Clear
3:55 AM 60.3 °F 57.4 °F 90% 30.16 in 7.0 mi ESE 4.6 mph - N/A   Clear
4:15 AM 60.8 °F 58.3 °F 91% 30.17 in 7.0 mi Calm Calm - N/A   Clear
4:35 AM 60.3 °F 58.1 °F 93% 30.16 in 7.0 mi ESE 3.5 mph - N/A   Clear
4:55 AM 59.9 °F 58.1 °F 94% 30.15 in 5.0 mi ESE 3.5 mph - N/A   Clear
5:15 AM 59.2 °F 57.4 °F 94% 30.15 in 5.0 mi East 4.6 mph - N/A   Clear
5:35 AM 59.9 °F 58.3 °F 94% 30.15 in 5.0 mi East 3.5 mph - N/A   Clear
5:55 AM 60.1 °F 58.5 °F 94% 30.17 in 2.5 mi Calm Calm - N/A   Scattered Clouds
6:15 AM 59.9 °F 58.6 °F 96% 30.17 in 0.2 mi Calm Calm - N/A Fog Fog
6:35 AM 58.8 °F 57.7 °F 96% 30.17 in 0.2 mi East 4.6 mph - N/A Fog Fog
6:55 AM 58.5 °F 57.6 °F 97% 30.19 in 0.2 mi Calm Calm - N/A Fog Fog
7:15 AM 56.3 °F 55.4 °F 97% 30.20 in 0.2 mi Calm Calm - N/A Fog Fog
7:35 AM 55.6 °F 54.7 °F 97% 30.19 in 0.2 mi NE 3.5 mph - N/A Fog Fog
7:55 AM 56.3 °F 55.6 °F 97% 30.20 in 0.2 mi Calm Calm - N/A Fog Fog
8:15 AM 57.4 °F 56.7 °F 97% 30.20 in 0.2 mi Calm Calm - N/A Fog Fog
8:35 AM 59.4 °F 58.6 °F 97% 30.21 in 4.0 mi Calm Calm - N/A   Scattered Clouds
8:55 AM 63.0 °F 62.1 °F 97% 30.21 in 4.0 mi East 5.8 mph - N/A   Clear
9:15 AM 66.4 °F 65.3 °F 96% 30.20 in 10.0 mi East 10.4 mph - N/A   Clear
9:35 AM 69.6 °F 64.4 °F 83% 30.20 in 10.0 mi ESE 12.7 mph - N/A   Clear
9:55 AM 71.4 °F 62.6 °F 74% 30.20 in 10.0 mi ESE 12.7 mph - N/A   Clear
10:15 AM 73.8 °F 61.5 °F 65% 30.22 in 10.0 mi ESE 16.1 mph - N/A   Scattered Clouds
10:35 AM 73.4 °F 57.2 °F 57% 30.22 in 10.0 mi SE 13.8 mph 20.7 mph N/A   Scattered Clouds
10:55 AM 73.4 °F 57.0 °F 56% 30.21 in 10.0 mi SE 20.7 mph 24.2 mph N/A   Scattered Clouds
11:15 AM 75.0 °F 57.2 °F 54% 30.20 in 10.0 mi SE 19.6 mph 26.5 mph N/A   Scattered Clouds
11:35 AM 75.2 °F 57.6 °F 54% 30.21 in 10.0 mi ESE 19.6 mph 24.2 mph N/A   Clear
11:55 AM 75.4 °F 57.4 °F 53% 30.20 in 10.0 mi SE 17.3 mph 23.0 mph N/A   Scattered Clouds
12:15 PM 76.3 °F 57.6 °F 52% 30.20 in 10.0 mi SE 18.4 mph 25.3 mph N/A   Scattered Clouds
12:35 PM 76.6 °F 56.5 °F 50% 30.19 in 10.0 mi SSE 15.0 mph 26.5 mph N/A   Scattered Clouds
12:55 PM 77.5 °F 56.5 °F 48% 30.18 in 10.0 mi SE 16.1 mph 24.2 mph N/A   Scattered Clouds
1:15 PM 78.6 °F 56.1 °F 46% 30.17 in 10.0 mi SE 20.7 mph 26.5 mph N/A   Clear
1:35 PM 78.6 °F 54.7 °F 43% 30.16 in 10.0 mi SE 19.6 mph 26.5 mph N/A   Clear
1:55 PM 79.2 °F 54.0 °F 42% 30.15 in 10.0 mi SE 20.7 mph 26.5 mph N/A   Clear
2:15 PM 79.7 °F 53.4 °F 40% 30.13 in 10.0 mi SE 20.7 mph 27.6 mph N/A   Clear
2:35 PM 79.9 °F 52.2 °F 38% 30.12 in 10.0 mi ESE 19.6 mph 24.2 mph N/A   Clear
2:55 PM 79.7 °F 50.7 °F 36% 30.11 in 10.0 mi SE 21.9 mph 27.6 mph N/A   Clear
3:15 PM 79.7 °F 49.1 °F 34% 30.10 in 10.0 mi ESE 19.6 mph 28.8 mph N/A   Clear
3:35 PM 79.2 °F 48.2 °F 34% 30.10 in 10.0 mi SE 21.9 mph 32.2 mph N/A   Clear
3:55 PM 79.0 °F 49.6 °F 36% 30.09 in 10.0 mi SE 19.6 mph 31.1 mph N/A   Clear
4:15 PM 78.6 °F 50.4 °F 37% 30.08 in 10.0 mi SE 19.6 mph 28.8 mph N/A   Clear
4:35 PM 78.4 °F 51.6 °F 39% 30.07 in 10.0 mi SE 19.6 mph 27.6 mph N/A   Clear
4:55 PM 78.1 °F 53.1 °F 42% 30.06 in 10.0 mi SE 20.7 mph 27.6 mph N/A   Clear
5:15 PM 77.2 °F 54.1 °F 45% 30.05 in 10.0 mi SE 20.7 mph 26.5 mph N/A   Clear
5:35 PM 76.6 °F 55.4 °F 48% 30.05 in 10.0 mi SE 24.2 mph 28.8 mph N/A   Clear
5:55 PM 75.9 °F 56.7 °F 51% 30.05 in 10.0 mi SE 23.0 mph 29.9 mph N/A   Clear
6:15 PM 75.2 °F 57.4 °F 54% 30.04 in 10.0 mi SE 21.9 mph 29.9 mph N/A   Clear
6:35 PM 73.8 °F 58.1 °F 58% 30.04 in 10.0 mi SE 21.9 mph 28.8 mph N/A   Scattered Clouds
6:55 PM 72.7 °F 58.5 °F 61% 30.04 in 10.0 mi SE 19.6 mph 28.8 mph N/A   Scattered Clouds
7:15 PM 71.6 °F 58.5 °F 63% 30.04 in 10.0 mi SE 21.9 mph 26.5 mph N/A   Scattered Clouds
7:35 PM 70.3 °F 58.3 °F 66% 30.04 in 10.0 mi SE 20.7 mph - N/A   Mostly Cloudy
7:55 PM 69.3 °F 58.5 °F 68% 30.04 in 10.0 mi ESE 21.9 mph - N/A   Scattered Clouds
8:15 PM 68.5 °F 58.6 °F 71% 30.05 in 10.0 mi ESE 16.1 mph - N/A   Clear
8:35 PM 68.0 °F 59.0 °F 73% 30.05 in 10.0 mi ESE 13.8 mph - N/A   Clear
8:55 PM 67.6 °F 59.4 °F 75% 30.05 in 10.0 mi ESE 15.0 mph - N/A   Clear
9:15 PM 67.3 °F 59.7 °F 77% 30.05 in 10.0 mi ESE 13.8 mph - N/A   Clear
9:35 PM 67.1 °F 59.9 °F 78% 30.06 in 10.0 mi ESE 13.8 mph - N/A   Clear
9:55 PM 66.7 °F 60.3 °F 80% 30.06 in 10.0 mi ESE 11.5 mph - N/A   Scattered Clouds
10:15 PM 66.6 °F 60.8 °F 82% 30.05 in 10.0 mi ESE 11.5 mph - N/A   Scattered Clouds
10:35 PM 67.3 °F 61.2 °F 81% 30.06 in 10.0 mi ESE 11.5 mph - N/A   Overcast
10:55 PM 67.6 °F 61.7 °F 81% 30.06 in 10.0 mi SE 12.7 mph - N/A   Overcast
11:15 PM 68.0 °F 62.1 °F 81% 30.05 in 10.0 mi SE 13.8 mph - N/A   Overcast
11:35 PM 67.1 °F 62.1 °F 84% 30.06 in 10.0 mi SE 11.5 mph - N/A   Mostly Cloudy
11:55 PM 67.1 °F 62.4 °F 85% 30.06 in 10.0 mi SE 10.4 mph - N/A   Overcast